Location: Caltech
(34.1382°N, 118.1253°W)
Time: 23:58:23
(UTC-07:00)

ITAMSAT 1 - Visible Passes

Search period start: 25 June 2017 00:00
Search period end: 05 July 2017 00:00
Orbit: 785 x 796 km, 98.8° (Epoch: 25 June)

Date Brightness Start Highest point End Pass type
(mag) Time Alt. Az. Time Alt. Az. Time Alt. Az.
25 Jun 9.7 03:25:13 10° NE 03:29:14 22° E 03:33:12 10° SE visible
25 Jun 8.4 05:03:56 10° N 05:08:43 37° WNW 05:13:29 10° SW visible
26 Jun 10.4 02:58:48 10° E 02:59:36 10° E 03:00:24 10° E visible
26 Jun 7.7 04:34:16 10° N 04:39:30 74° WNW 04:44:42 10° SSW visible
27 Jun 8.2 04:05:00 10° NNE 04:10:09 56° E 04:15:04 11° S visible
28 Jun 9.3 03:36:13 10° NE 03:40:42 28° E 03:45:08 10° SSE visible
29 Jun 10.1 03:08:25 10° ENE 03:11:07 14° E 03:13:47 10° SE visible
29 Jun 7.9 04:45:44 10° N 04:50:51 57° WNW 04:55:57 10° SSW visible
30 Jun 7.8 04:16:19 10° NNE 04:21:33 73° ESE 04:26:33 11° S visible
01 Jul 8.9 03:47:19 10° NNE 03:52:08 36° E 03:56:47 11° SSE visible
02 Jul 9.9 03:19:02 10° NE 03:22:36 18° E 03:26:09 10° SE visible
02 Jul 8.2 04:57:15 10° N 05:02:12 44° WNW 05:07:07 10° SW visible
03 Jul 7.6 04:27:41 10° NNE 04:32:57 87° WNW 04:38:00 11° SSW visible
04 Jul 8.5 03:58:32 10° NNE 04:03:34 47° E 04:08:15 12° S visible
